星链-34289 (STARLINK-34289)

导读 | 豆包AI

STARLINK-34289是美国SpaceX公司星链(Starlink)星座的卫星,于2025年6月5日发射升空。星链项目依托成熟火箭回收与一箭多星技术,大幅降低发射成本,构建全球低轨卫星互联网星座,为偏远地区提供高速宽带服务,同时拓展商业、国防等多领域应用,推动天基通信网络发展,STARLINK-34289的入轨进一步扩充了星链星座的组网规模。

基本信息
目录编号:
64225
目录名称:
STARLINK-34289
国际标识:
2025-117Y
轨道中心:
EARTH
卫星名称:
星链-34289
卫星全名:
星链-34289 (STARLINK-34289)
卫星状态:
在轨 (已飞行333 天)
发射日期:
2025-05-31 UTC
国别 :
美国 (US)
星等 :
--
轨道信息
数据来源 国际轨道数据
星历时间: 2026-04-29T04:09:17+0800
20小时前
查看轨道信息
半长轴: 6853.351km
偏心率: 0.0001444
轨道倾角: 53.159°
近地点辐角 83.676°
升交点赤经 166.672°
平近点角 276.441°
近地点: 474.224km
远地点: 476.204km
周期: 94.105分钟
每日圈数: 15.302005
详细信息
固有亮度:
5
最大亮度:
2.5
卫星平台:
Starlink V1.0
覆盖范围:
全球
运营商:
太空探索技术公司
运营商所在国:
美国
制造商(研发单位):
太空探索技术公司
制造商所在国:
美国
使用方式:
暂无
卫星简介
Starlink 计划是 SpaceX 推出的全球卫星互联网项目,通过发射低轨道卫星,为全球尤其是偏远地区提供高速、低延迟的互联网服务。自 2019 年起,Starlink 已部署数千颗卫星,旨在缩小全球数字鸿沟,推动互联网普及。该项目还为军事、航空等行业提供通信支持,带来广泛经济效益。
2D轨道图
3D轨道图
轨道高度分析图
轨道倾角分析图
轨道综合分析图
查看轨道综合分析图